Tracking 22879 objects as of 21-Apr-2021
HD Live streaming from Space Station
objects crossing your sky now

YUNHAI 2 1

Track YUNHAI 2 1 now!
10-day predictions


NORAD ID: 43909
Int'l Code: 2018-112A
Perigee: 806.6 km
Apogee: 806.7 km
Inclination: 50.0 °
Period: 100.9 minutes
Semi major axis: 7177 km
RCS: Unknown
Launch date: December 29, 2018
Source: People's Republic of China (PRC)
Launch site: Jiuquan Satellite Launch Center, China (JSC)
aabbcc
Your satellite tracking list
Your tracking list is empty




NASA's NSSDC Master Catalog

Two Line Element Set (TLE):
1 43909U 18112A   21111.43850720 -.00000186  00000-0 -98960-5 0  9997
2 43909  50.0110 105.8312 0000021 294.6207  65.4709 14.27678781122048
Source of the keplerian elements: AFSPC